Погода в Ясной

Россия / Забайкальский край     50°49′49″N   115°47′55″E
темп.,
°C
ветер,
м/с
пор.,
м/с
влажн.,
%
обл.,
%
осадки,
мм/ч
давл.,
гПа
погр.,
м
28 января, чт
чт2800:00−26сз229998 0.1 102820
03:00−27сз239890 0.1 103032
06:00−30сз229530 0.0 103020
09:00−31з229115 0.0 103120
12:00−27зсз23840 0.0 1029219
15:00−25зсз12786 0.0 1026354
18:00−28ю1187100 0.0 102519
21:00−27юв2289100 0.0 102420
29 января, пт
пт2900:00−27юв2294100 0.0 102224
03:00−28ююв229798 0.1 102020
06:00−31юв119954 0.0 101819
09:00−30св119877 0.0 101819
12:00−26с2392100 0.1 1019282
15:00−27ссз5890100 0.1 1020454
18:00−30ссз459267 0.0 102576
21:00−32ссз239133 0.0 102821
30 января, сб
сб3000:00−33ссз22930 0.0 103019
03:00−34с11960 0.0 103119
06:00−35в11970 0.0 103119
09:00−35вюв11959 0.0 103219
12:00−30в128753 0.0 1031128
15:00−27юв228467 0.0 1029294
18:00−29вюв1193100 0.0 103019
21:00−29вюв1198100 0.1 103121
31 января, вс
вс3100:00−29вюв1198100 0.1 103020
03:00−29в1298100 0.1 102920
06:00−30всв1198100 0.1 102919
09:00−31св1199100 0.1 103019
12:00−28с2293100 0.0 1030202
15:00−27ссз3387100 0.0 1029351
18:00−31ссз239332 0.0 103119
21:00−33ссз229117 0.0 103319
1 февраля, пн
пн100:00−33сз22900 0.0 103419
03:00−33сз23900 0.0 103420
06:00−33сз34910 0.0 103442
09:00−34сз22900 0.0 103622
12:00−29сз23830 0.0 1034212
15:00−27зсз238017 0.0 1031373
18:00−29ссз1288100 0.0 102919
21:00−32ссз119181 0.0 102919